Weather Roundup
Issued by NWS Corpus Christi, TX

Home | Current Version | Previous Version | Text Only | Print | Product List | Glossary On
Versions: 1 2 3 4 5 6 7 8 9 10 11 12 13 14 15 16 17 18 19 20 21 22 23 24 25 26 27 28 29 30 31 32 33 34 35 36 37 38 39 40 41 42 43 44 45 46 47 48 49 50
000
ASUS44 KCRP 010210
HRRCRP

SOUTH TEXAS REGIONAL WEATHER ROUNDUP
NATIONAL WEATHER SERVICE CORPUS CHRISTI TX
900 PM CDT SAT APR 30 2016


TXZ229>244-010300-
...CORPUS CHRISTI AREA OBSERVATIONS...

CITY           SKY/WX    TMP DP  RH WIND       PRES   REMARKS
CORPUS CHRISTI MOCLDY    80  75  84 E8        29.70R
NAS CORPUS CHR CLEAR     79  77  94 E7        29.70R
ROCKPORT       CLEAR     80  74  81 E7        29.70R
KINGSVILLE NAS CLEAR     79  77  94 E6        29.69R
ALICE          CLEAR     80  71  74 E9        29.69R
FALFURRIAS     CLEAR     82  69  66 E5        29.68R
$$

...VICTORIA AREA OBSERVATIONS...

CITY           SKY/WX    TMP DP  RH WIND       PRES   REMARKS
VICTORIA       PTCLDY    78  75  90 E6        29.72R FOG
BEEVILLE       FAIR      78  67  69 E5        29.72R
PLEASANTON     CLEAR     76  63  64 CALM      29.74R
SAN ANTONIO    PTCLDY    76  61  59 NE5       29.75R
$$

...LAREDO AREA OBSERVATIONS...

CITY           SKY/WX    TMP DP  RH WIND       PRES   REMARKS
LAREDO         CLEAR     83  49  30 N9        29.70R
COTULLA        CLEAR     83  50  31 NE8       29.72R
DEL RIO        CLEAR     79  44  28 E7        29.70R
MCALLEN        PTCLDY    87  71  58 E7        29.68R HX  93
HEBBRONVILLE   CLEAR     82  50  33 NE6       29.71R
$$

...OTHER TEXAS OBSERVATIONS...

CITY           SKY/WX    TMP DP  RH WIND       PRES   REMARKS
BROWNSVILLE    PTCLDY    79  76  90 E5        29.68R
HOUSTON        PTCLDY    76  72  87 E7        29.74R
COL. STATION   CLEAR     77  68  73 N3        29.75R
AUSTIN         PTCLDY    71  67  87 N7        29.76R
WACO           CLEAR     69  64  84 N5        29.80R
FORT WORTH     PTCLDY    69  57  65 N3        29.82R
WICHITA FALLS  CLEAR     62  50  64 N6        29.85R
LUBBOCK        PTCLDY    63  41  44 E17       29.85R
EL PASO        PTCLDY    72  16  12 NE6       29.71R
$$

...MARINE OBSERVATIONS...

STATION/POSITION TIME  SKY/WX   TEMP    WIND        PRES    VSBY  WAVE   SWELL
                                AIR SEA DIR/SP/G                  HT/PER HT/PER
                 (UTC)          (F)     (DEG/KT/KT) (MB)    (MI)  (FT/S) (FT/S)
PORT ARANSAS     0200            79 80   60/  9/  9 1006.5R
BUOY 90 E PORT A 0150            78 78  100/  4/  6 1006.0R         6/ 8   5/ 8
BUOY 45 SE BAFFI 0150            78 78  100/  8/ 10 1004.7R         5/ 8   5/ 8
BUOY 200 E PT IS 0150                                 N/A           7/ 9   5/ 9
BUOY 15 E GALVES 0150            77 77  100/ 10/ 12 1006.8R         4/ 8   3/ 8
$$




USA.gov is the U.S. government's official web portal to all federal, state and local government web resources and services.